Flag for Germany Weather past 2 weeks in Bergisch Gladbach, North Rhine-Westphalia, Germany

Now
61 °F

Light rain. Passing clouds.


Feels Like: 61 °F
Forecast: 62 / 75 °F
Wind: 8 mph from Southeast

Location: Koeln / Bonn

Current Time: Sep 18, 2014 at 8:23:45 AM

Latest Report: Sep 18, 2014 at 7:50 AM


Visibility: N/A

Pressure: 29.86 "Hg

Humidity: 83%

Dew point: 55 °F

Location of Bergisch GladbachLocation

Historic Weather in Bergisch Gladbach — Graph

°F

Bergisch Gladbach temperature yesterday

Maximum temperature yesterday: 77 °F (at 3:50 PM)
Minimum temperature yesterday: 52 °F (at 5:20 AM)
Average temperature yesterday: 65 °F

Past Weeks' High & Low Weather Summary

 TemperatureHumidityPressure
High77 °F (Sep 5, 3:50 PM)100% (Sep 3, 7:50 AM)30.24 "Hg (Sep 3, 7:50 AM)
Low45 °F (Sep 12, 3:20 AM)44% (Sep 17, 4:20 PM)29.86 "Hg (Sep 17, 3:50 PM)
Average62 °F80%30.05 "Hg
* Reported Sep 3 7:20 AM — Sep 18 7:20 AM, Bergisch Gladbach, Weather by CustomWeather, © 2014

Note: Actual official high and low records may vary slightly from our data, if they occured in-between our weather recording intervals... More about our weather records

Advertising

Bergisch Gladbach weather history for previous 24 hours

 ConditionsComfort  
Time TempWeatherWind HumidityBarometerVisibility
7:20 AM
Sep 18
61 °FClear.8 mph83%29.86 "Hg10 mi
6:50 AM61 °FClear.6 mph83%29.86 "Hg10 mi
6:20 AM59 °FClear.6 mph88%29.86 "Hg10 mi
5:50 AM59 °FClear.6 mph88%29.86 "Hg10 mi
5:20 AM59 °FClear.5 mph88%29.86 "Hg10 mi
4:50 AM61 °FClear.5 mph83%29.86 "Hg10 mi
4:20 AM61 °FClear.5 mph83%29.86 "Hg10 mi
3:50 AM61 °FClear.6 mph83%29.86 "Hg10 mi
3:20 AM61 °FClear.5 mph83%29.86 "Hg10 mi
2:50 AM61 °FClear.5 mph83%29.86 "Hg10 mi
2:20 AM61 °FClear.2 mph83%29.86 "Hg10 mi
1:50 AM61 °FClear.5 mph88%29.86 "Hg10 mi
1:20 AM61 °FClear.5 mph88%29.86 "Hg10 mi
12:50 AM63 °FClear.5 mph83%29.86 "Hg10 mi
12:20 AM63 °FClear.6 mph83%29.86 "Hg10 mi
11:50 PM
Sep 17
63 °FClear.5 mph83%29.86 "Hg10 mi
11:20 PM64 °FClear.7 mph78%29.86 "Hg10 mi
10:50 PM64 °FClear.6 mph78%29.86 "Hg10 mi
10:20 PM64 °FClear.5 mph78%29.86 "Hg10 mi
9:50 PM66 °FClear.5 mph73%29.86 "Hg10 mi
9:20 PM66 °FClear.6 mph73%29.86 "Hg10 mi
8:50 PM66 °FClear.5 mph78%29.86 "Hg10 mi
8:20 PM68 °FSunny.6 mph73%29.86 "Hg10 mi
7:50 PM68 °FSunny.5 mph73%29.86 "Hg10 mi
7:20 PM72 °FSunny.5 mph65%29.86 "Hg10 mi
6:50 PM73 °FScattered clouds.3 mph61%29.86 "HgN/A
6:20 PM75 °FPassing clouds.5 mph54%29.86 "HgN/A
5:50 PM75 °FPassing clouds.5 mph57%29.86 "HgN/A
5:20 PM77 °FPassing clouds.7 mph51%29.86 "HgN/A
4:50 PM77 °FPassing clouds.7 mph47%29.86 "HgN/A
4:20 PM77 °FPassing clouds.8 mph44%29.86 "HgN/A
3:50 PM77 °FPassing clouds.7 mph47%29.86 "HgN/A
3:20 PM75 °FPassing clouds.7 mph54%29.89 "HgN/A
2:50 PM75 °FPassing clouds.7 mph50%29.89 "HgN/A
2:20 PM75 °FPassing clouds.3 mph57%29.89 "HgN/A
1:50 PM73 °FPassing clouds.8 mph65%29.89 "HgN/A
1:20 PM73 °FPassing clouds.6 mph65%29.89 "HgN/A
12:50 PM72 °FPassing clouds.9 mph61%29.89 "HgN/A
12:20 PM72 °FPassing clouds.8 mph65%29.92 "HgN/A
11:50 AM72 °FSunny.8 mph65%29.92 "Hg10 mi
11:20 AM70 °FSunny.8 mph64%29.92 "Hg10 mi
10:50 AM68 °FSunny.8 mph69%29.92 "Hg10 mi
10:20 AM66 °FSunny.8 mph73%29.92 "Hg10 mi
9:50 AM64 °FSunny.6 mph78%29.92 "Hg10 mi
9:20 AM63 °FSunny.3 mph83%29.92 "Hg10 mi
8:50 AM59 °FSunny.2 mph88%29.92 "Hg10 mi
8:20 AM57 °FSunny.2 mph94%29.92 "Hg10 mi
Weather by CustomWeather, © 2014

See weather overviewHow to use our weather pages